Regional Weather Roundup
Issued by NWS

Home | Current Version | Previous Version | Graphics & Text | Print | Product List | Glossary On
Versions: 1 2 3 4 5 6 7 8 9 10 11 12 13 14 15 16 17 18 19 20 21 22 23 24 25 26 27 28 29 30 31 32 33 34 35 36 37 38 39 40 41 42 43 44 45 46 47 48 49 50
548
ASUS45 KSLC 062110
RWRUT

UTAH REGIONAL WEATHER ROUNDUP
NATIONAL WEATHER SERVICE SALT LAKE CITY UT
300 PM MDT FRI MAY 06 2016

UTZ001>011-023>025-062200-

NORTHERN UTAH

CITY           SKY/WX    TMP DP  RH WIND       PRES   REMARKS
BRIGHAM CITY   CLOUDY    69  41  36 E25G32    29.77S
HILL AFB       PTSUNNY   68  44  42 SE12      29.78F
LOGAN          CLOUDY    66  46  48 CALM      29.82F
OGDEN          CLOUDY    71  44  37 VRB7      29.77S
PROVO AIRPORT  PTSUNNY   61  50  67 NW9       29.78R
SALT LAKE CITY CLOUDY    69  42  37 W9        29.75F THUNDER
VERNAL         CLOUDY    71  38  29 E13       29.77F
WENDOVER       CLOUDY    64  37  36 NE21G28   29.79R
HEBER CITY     CLOUDY    63  43  48 CALM      29.79F

$$

UTZ012>022-026-027-062200-

SOUTHERN/CENTRAL UTAH

CITY           SKY/WX    TMP DP  RH WIND       PRES   REMARKS
BLANDING       PTSUNNY   58  36  43 W17G24    29.95R
BRYCE CANYON   CLOUDY    52  18  26 SE20G43   29.89F SQUALL
CEDAR CITY     MOSUNNY   65  21  18 SW22G36   29.78F
DELTA          CLOUDY    64  27  24 SE22G35   29.79R
HANKSVILLE     CLOUDY    55  36  47 SW40G51   29.92R
MILFORD        PTSUNNY   66  19  16 SE13      29.77F
MOAB/CYNLANDS  CLOUDY    75  29  18 W29G36    29.73R
PRICE          PTSUNNY   69  28  21 SW8       29.81F
ST GEORGE      CLOUDY    64  36  34 W22G29    29.81R

$$

REGIONAL REPORTS     COLORADO/ARIZONA

CITY           SKY/WX    TMP DP  RH WIND       PRES   REMARKS
CRAIG, CO      CLOUDY    75  29  18 SE17G31   29.84F
GRAND JUNCTION CLOUDY    76  36  23 NW3       29.70F
RIFLE          CLOUDY    75  34  22 SE20      29.78F
MONTROSE       CLOUDY    78  24  13 SE22G28   29.79F
CORTEZ         SUNNY     78  24  13 S18G39    29.83F
PAGE, AZ       PTSUNNY   75  21  13 SE18G24   29.76F
GRAND CANYON   PTSUNNY   61  20  20 S18G30    29.90F
KINGMAN        LGT RAIN  49  41  74 E21       29.89R
FLAGSTAFF      MOSUNNY   54  18  24 SW26G37   29.94F

$$

REGIONAL REPORTS    NEVADA/IDAHO/WYOMING

CITY           SKY/WX    TMP DP  RH WIND       PRES   REMARKS
LAS VEGAS, NV  CLOUDY    67  39  35 E10       29.76R THUNDER
ELY            PTSUNNY   58  27  30 SE10      29.82S
ELKO           CLOUDY    57  41  55 SW10G25   29.79R
POCATELLO, ID  CLOUDY    59  51  75 NE21      29.90F
BURLEY         CLOUDY    64  50  60 NE14      29.84F
EVANSTON, WY   CLOUDY    53  38  56 E20G30    29.93F
ROCK SPRINGS   SUNNY     61  43  51 NE26G35   29.95F
KEMMERER         N/A     54  41  62 NE33G43   29.97F

$$




USA.gov is the U.S. government's official web portal to all federal, state and local government web resources and services.